This is the latest recevied weather packets stored in our database for station/object N0KTA-2. If no packets are shown the sender has not sent any weather packets the latest 10 day(s).
| Time | Temp. | Humidity | Pressure | Rain* | Wind** | Luminosity | Snow |
|---|---|---|---|---|---|---|---|
| 1777965564 | 20° C | 71% | 998 hPa | 0 mm | - | - | - |
| 1777964965 | 20.56° C | 71% | 997.7 hPa | 0 mm | - | - | - |
| 1777964365 | 20.56° C | 71% | 997.8 hPa | 0 mm | - | - | - |
| 1777963764 | 20.56° C | 69% | 997.5 hPa | 0 mm | - | - | - |
| 1777963165 | 20.56° C | 70% | 997.7 hPa | 0 mm | - | - | - |
| 1777962564 | 21.11° C | 70% | 997.3 hPa | 0 mm | - | - | - |
| 1777961965 | 21.11° C | 69% | 997.2 hPa | 0 mm | - | - | - |
| 1777961365 | 21.11° C | 69% | 997 hPa | 0 mm | - | - | - |
| 1777960765 | 21.11° C | 69% | 996.8 hPa | 0 mm | - | - | - |
| 1777960164 | 21.11° C | 68% | 996.8 hPa | 0 mm | - | - | - |
| 1777959565 | 21.67° C | 68% | 996.7 hPa | 0 mm | - | - | - |
| 1777958964 | 21.67° C | 68% | 996.8 hPa | 0 mm | - | - | - |
| 1777958365 | 21.67° C | 65% | 996.7 hPa | 0 mm | - | - | - |
| 1777957764 | 21.67° C | 64% | 996.5 hPa | 0 mm | - | - | - |
| 1777957165 | 21.67° C | 65% | 996.5 hPa | 0 mm | - | - | - |
| 1777956564 | 21.67° C | 69% | 996.5 hPa | 0 mm | - | - | - |
| 1777955964 | 21.11° C | 68% | 996.8 hPa | 0 mm | - | - | - |
| 1777955364 | 21.11° C | 69% | 996.6 hPa | 0 mm | - | - | - |
| 1777954763 | 21.67° C | 69% | 996.6 hPa | 0 mm | - | - | - |
| 1777954165 | 21.67° C | 69% | 996.5 hPa | 0 mm | - | - | - |
| 1777953563 | 22.22° C | 68% | 996.6 hPa | 0 mm | - | - | - |
| 1777952965 | 22.78° C | 67% | 996.6 hPa | 0 mm | - | - | - |
| 1777952364 | 22.78° C | 66% | 996.3 hPa | 0 mm | - | - | - |
| 1777951764 | 23.33° C | 65% | 996.6 hPa | 0 mm | - | - | - |
| 1777951164 | 23.33° C | 64% | 997 hPa | 0 mm | - | - | - |
* Rain latest hour (hover to see other rain measurements)
** Current wind speed in m/s (hover to see current wind gust speed)